KLM17J ENBR-EHAM

Flight info

Callsign KLM17J
Flight time 1h 20m
Altitude 37000
Route TUXIL DCT ZOL DCT ATNAK DCT TIPAN DCT WECOW DCT LARDI DCT TOPPA
Aircraft A21N/M-SDE3FGHIRWY/LB1

Departure

Time 2026-04-28 11:40
Airport Bergen Airport, Flesland (ENBR)

Arrival

Time 2026-04-28 13:00
Airport Amsterdam Airport Schiphol (EHAM)
Time Latitude Longitude Altitude Speed Heading
2026-04-28 11:17 60.28988 5.22649 176 ft 0 kts 157°
2026-04-28 11:29 60.29001 5.22638 176 ft 2 kts 156°
2026-04-28 11:30 60.29015 5.22626 176 ft 2 kts 156°
2026-04-28 11:30 60.29042 5.22633 175 ft 2 kts 232°
2026-04-28 11:30 60.29048 5.22661 175 ft 2 kts 268°
2026-04-28 11:31 60.29048 5.22678 175 ft 1 kts 262°
2026-04-28 11:31 60.29048 5.22679 175 ft 0 kts 262°
2026-04-28 11:33 60.29047 5.22662 175 ft 2 kts 262°
2026-04-28 11:33 60.29043 5.22606 176 ft 5 kts 261°
2026-04-28 11:33 60.29034 5.22503 176 ft 9 kts 260°
2026-04-28 11:33 60.29010 5.22392 175 ft 6 kts 225°
2026-04-28 11:34 60.28956 5.22360 174 ft 10 kts 205°
2026-04-28 11:34 60.28907 5.22305 172 ft 8 kts 191°
2026-04-28 11:34 60.28828 5.22318 171 ft 13 kts 171°
2026-04-28 11:34 60.28718 5.22355 168 ft 18 kts 170°
2026-04-28 11:35 60.28583 5.22400 166 ft 21 kts 171°
2026-04-28 11:35 60.28429 5.22451 164 ft 22 kts 172°
2026-04-28 11:35 60.28276 5.22504 160 ft 22 kts 169°
2026-04-28 11:35 60.28155 5.22544 158 ft 11 kts 172°
2026-04-28 11:36 60.28078 5.22535 156 ft 9 kts 214°
2026-04-28 11:36 60.28060 5.22494 155 ft 0 kts 241°
2026-04-28 11:38 60.28055 5.22470 155 ft 5 kts 252°
2026-04-28 11:38 60.28045 5.22317 149 ft 14 kts 283°
2026-04-28 11:38 60.28106 5.22236 148 ft 0 kts 349°
2026-04-28 11:39 60.28262 5.22182 151 ft 66 kts 351°
2026-04-28 11:39 60.29015 5.21928 165 ft 149 kts 349°
2026-04-28 11:40 60.30144 5.21534 742 ft 171 kts 348°
2026-04-28 11:40 60.31262 5.21146 1858 ft 167 kts 350°
2026-04-28 11:40 60.32357 5.20815 2766 ft 168 kts 351°
2026-04-28 11:40 60.33551 5.20441 3432 ft 183 kts 351°
2026-04-28 11:41 60.34782 5.20031 4050 ft 199 kts 351°
2026-04-28 11:41 60.35665 5.19746 4460 ft 211 kts 351°
2026-04-28 11:41 60.37203 5.19266 4963 ft 238 kts 351°
2026-04-28 11:41 60.38871 5.18752 5674 ft 255 kts 351°
2026-04-28 11:42 60.40029 5.18343 6322 ft 259 kts 349°
2026-04-28 11:42 60.41793 5.17724 7346 ft 263 kts 350°
2026-04-28 11:42 60.43572 5.17106 8453 ft 263 kts 349°
2026-04-28 11:42 60.45362 5.16463 9451 ft 265 kts 347°
2026-04-28 11:43 60.47001 5.14926 10378 ft 270 kts 323°
2026-04-28 11:43 60.48198 5.12029 11351 ft 277 kts 300°
2026-04-28 11:43 60.48674 5.08212 12197 ft 291 kts 276°
2026-04-28 11:43 60.48318 5.04087 13002 ft 309 kts 254°
2026-04-28 11:44 60.47123 5.00364 13711 ft 329 kts 228°
2026-04-28 11:44 60.45153 4.97875 14314 ft 348 kts 200°
2026-04-28 11:44 60.42739 4.97277 14710 ft 365 kts 176°
2026-04-28 11:44 60.40168 4.97867 15196 ft 378 kts 169°
2026-04-28 11:45 60.37559 4.98694 15939 ft 384 kts 169°
2026-04-28 11:45 60.34925 4.99445 16735 ft 387 kts 171°
2026-04-28 11:45 60.32278 5.00076 17474 ft 391 kts 171°
2026-04-28 11:45 60.29548 5.00659 18188 ft 396 kts 172°
2026-04-28 11:46 60.26847 5.01361 18877 ft 400 kts 168°
2026-04-28 11:46 60.24106 5.02398 19579 ft 403 kts 166°
2026-04-28 11:46 60.21342 5.03501 20245 ft 408 kts 166°
2026-04-28 11:46 60.18581 5.04626 20883 ft 412 kts 164°
2026-04-28 11:47 60.15788 5.06114 21533 ft 415 kts 159°
2026-04-28 11:47 60.13084 5.08086 22123 ft 417 kts 153°
2026-04-28 11:47 60.10433 5.10354 22737 ft 421 kts 152°
2026-04-28 11:47 60.07731 5.12717 23317 ft 426 kts 152°
2026-04-28 11:48 60.05040 5.15062 23899 ft 430 kts 152°
2026-04-28 11:48 60.02302 5.17431 24473 ft 434 kts 152°
2026-04-28 11:48 59.99499 5.19837 25027 ft 438 kts 152°
2026-04-28 11:48 59.96713 5.22217 25575 ft 442 kts 152°
2026-04-28 11:49 59.93874 5.24636 26103 ft 446 kts 152°
2026-04-28 11:49 59.91045 5.27038 26637 ft 449 kts 152°
2026-04-28 11:49 59.88157 5.29485 27140 ft 452 kts 152°
2026-04-28 11:49 59.85278 5.31918 27594 ft 456 kts 152°
2026-04-28 11:50 59.82352 5.34301 28047 ft 461 kts 155°
2026-04-28 11:50 59.79288 5.36106 28459 ft 468 kts 163°
2026-04-28 11:50 59.76057 5.37161 28874 ft 474 kts 171°
2026-04-28 11:50 59.72806 5.37711 29296 ft 477 kts 173°
2026-04-28 11:51 59.69488 5.38162 29712 ft 480 kts 173°
2026-04-28 11:51 59.66167 5.38641 30105 ft 482 kts 173°
2026-04-28 11:51 59.62855 5.39319 30484 ft 484 kts 169°
2026-04-28 11:51 59.59491 5.40168 30851 ft 487 kts 169°
2026-04-28 11:52 59.56173 5.41017 31209 ft 490 kts 169°
2026-04-28 11:52 59.52792 5.41885 31555 ft 492 kts 169°
2026-04-28 11:52 59.49379 5.42751 31890 ft 495 kts 170°
2026-04-28 11:52 59.46005 5.43602 32302 ft 495 kts 169°
2026-04-28 11:53 59.42600 5.44457 32786 ft 494 kts 169°
2026-04-28 11:53 59.39245 5.45403 33256 ft 491 kts 167°
2026-04-28 11:53 59.35914 5.46610 33680 ft 490 kts 166°
2026-04-28 11:53 59.32563 5.47838 34078 ft 489 kts 166°
2026-04-28 11:54 59.29259 5.49045 34454 ft 489 kts 166°
2026-04-28 11:54 59.25917 5.50260 34831 ft 488 kts 166°
2026-04-28 11:54 59.22594 5.51467 35157 ft 487 kts 166°
2026-04-28 11:54 59.19268 5.52671 35473 ft 486 kts 166°
2026-04-28 11:55 59.15983 5.53857 35762 ft 486 kts 166°
2026-04-28 11:55 59.12656 5.55056 36024 ft 486 kts 166°
2026-04-28 11:55 59.09334 5.56250 36256 ft 487 kts 166°
2026-04-28 11:55 59.06037 5.57436 36467 ft 488 kts 166°
2026-04-28 11:56 59.02683 5.58636 36683 ft 489 kts 166°
2026-04-28 11:56 58.99338 5.59833 36947 ft 490 kts 166°
2026-04-28 11:56 58.96017 5.61009 37192 ft 491 kts 167°
2026-04-28 11:56 58.92630 5.61934 37432 ft 493 kts 171°
2026-04-28 11:57 58.85778 5.62456 37475 ft 496 kts 180°
2026-04-28 11:57 58.78960 5.61120 37475 ft 497 kts 189°
2026-04-28 11:58 58.72212 5.58630 37475 ft 497 kts 190°
2026-04-28 11:58 58.65426 5.56151 37471 ft 496 kts 190°
2026-04-28 11:59 58.58687 5.53743 37464 ft 497 kts 189°
2026-04-28 11:59 58.51907 5.51345 37459 ft 497 kts 189°
2026-04-28 12:00 58.45181 5.48978 37460 ft 497 kts 189°
2026-04-28 12:00 58.38428 5.46610 37463 ft 496 kts 189°
2026-04-28 12:01 58.31635 5.44239 37463 ft 496 kts 189°
2026-04-28 12:01 58.24894 5.41895 37463 ft 496 kts 189°
2026-04-28 12:02 58.18169 5.39565 37465 ft 495 kts 189°
2026-04-28 12:02 58.11406 5.37232 37463 ft 495 kts 189°
2026-04-28 12:03 58.04634 5.34903 37467 ft 495 kts 189°
2026-04-28 12:03 57.97915 5.32601 37471 ft 495 kts 189°
2026-04-28 12:04 57.91151 5.30293 37473 ft 495 kts 189°
2026-04-28 12:04 57.84446 5.28014 37473 ft 494 kts 189°
2026-04-28 12:05 57.77714 5.25733 37476 ft 494 kts 189°
2026-04-28 12:05 57.70978 5.23465 37477 ft 494 kts 189°
2026-04-28 12:06 57.64227 5.21195 37478 ft 494 kts 188°
2026-04-28 12:06 57.57505 5.18943 37479 ft 494 kts 188°
2026-04-28 12:07 57.50763 5.16691 37477 ft 494 kts 188°
2026-04-28 12:07 57.44004 5.14447 37470 ft 494 kts 188°
2026-04-28 12:08 57.37270 5.12221 37475 ft 494 kts 188°
2026-04-28 12:08 57.30542 5.10001 37479 ft 494 kts 188°
2026-04-28 12:09 57.23825 5.07792 37477 ft 493 kts 188°
2026-04-28 12:09 57.17092 5.05590 37476 ft 493 kts 188°
2026-04-28 12:10 57.10348 5.03388 37476 ft 493 kts 188°
2026-04-28 12:10 57.03664 5.01218 37472 ft 493 kts 188°
2026-04-28 12:11 56.96894 4.99119 37469 ft 492 kts 186°
2026-04-28 12:11 56.90193 4.97363 37475 ft 492 kts 186°
2026-04-28 12:12 56.83403 4.95609 37473 ft 492 kts 186°
2026-04-28 12:12 56.76704 4.93857 37467 ft 491 kts 185°
2026-04-28 12:13 56.69955 4.92086 37463 ft 492 kts 186°
2026-04-28 12:13 56.63199 4.90320 37467 ft 491 kts 185°
2026-04-28 12:14 56.56470 4.88567 37466 ft 491 kts 186°
2026-04-28 12:14 56.49727 4.86814 37466 ft 491 kts 185°
2026-04-28 12:15 56.43003 4.85071 37462 ft 490 kts 185°
2026-04-28 12:15 56.36311 4.83346 37459 ft 490 kts 185°
2026-04-28 12:16 56.29583 4.81616 37459 ft 490 kts 185°
2026-04-28 12:16 56.22848 4.79891 37460 ft 490 kts 185°
2026-04-28 12:17 56.16166 4.78187 37456 ft 489 kts 185°
2026-04-28 12:17 56.09453 4.76480 37456 ft 489 kts 185°
2026-04-28 12:18 56.02723 4.74770 37456 ft 489 kts 185°
2026-04-28 12:18 55.96034 4.73081 37463 ft 489 kts 185°
2026-04-28 12:19 55.89345 4.71400 37460 ft 489 kts 185°
2026-04-28 12:19 55.82619 4.69712 37456 ft 488 kts 185°
2026-04-28 12:20 55.75938 4.68044 37455 ft 487 kts 185°
2026-04-28 12:20 55.69217 4.66373 37462 ft 488 kts 185°
2026-04-28 12:21 55.62513 4.64705 37458 ft 487 kts 185°
2026-04-28 12:21 55.55847 4.63056 37452 ft 487 kts 184°
2026-04-28 12:22 55.49153 4.61407 37446 ft 487 kts 184°
2026-04-28 12:22 55.42462 4.59764 37443 ft 486 kts 185°
2026-04-28 12:23 55.35794 4.58131 37441 ft 485 kts 184°
2026-04-28 12:23 55.29137 4.56507 37437 ft 485 kts 184°
2026-04-28 12:24 55.22502 4.54894 37436 ft 485 kts 184°
2026-04-28 12:24 55.15844 4.53280 37416 ft 485 kts 184°
2026-04-28 12:25 55.09192 4.51676 37431 ft 485 kts 184°
2026-04-28 12:25 55.02515 4.50068 37436 ft 484 kts 184°
2026-04-28 12:26 54.95879 4.48477 37414 ft 484 kts 184°
2026-04-28 12:26 54.89250 4.46888 37395 ft 484 kts 184°
2026-04-28 12:27 54.82597 4.45306 37411 ft 483 kts 184°
2026-04-28 12:27 54.75969 4.43733 37414 ft 483 kts 184°
2026-04-28 12:28 54.69360 4.42167 37370 ft 482 kts 184°
2026-04-28 12:28 54.62783 4.39992 37383 ft 484 kts 192°
2026-04-28 12:29 54.53304 4.34044 37369 ft 487 kts 203°
2026-04-28 12:30 54.47310 4.28622 37379 ft 487 kts 206°
2026-04-28 12:30 54.41400 4.23206 37367 ft 486 kts 205°
2026-04-28 12:31 54.35430 4.17802 37367 ft 485 kts 205°
2026-04-28 12:31 54.29464 4.12431 37383 ft 485 kts 205°
2026-04-28 12:32 54.23533 4.07120 37361 ft 485 kts 205°
2026-04-28 12:32 54.17597 4.01810 37361 ft 483 kts 205°
2026-04-28 12:33 54.11663 3.96526 37363 ft 483 kts 205°
2026-04-28 12:33 54.05716 3.91245 37357 ft 483 kts 205°
2026-04-28 12:34 53.99773 3.85986 36838 ft 490 kts 205°
2026-04-28 12:34 53.96745 3.83313 36165 ft 497 kts 205°
2026-04-28 12:34 53.93691 3.80620 35506 ft 501 kts 204°
2026-04-28 12:34 53.90589 3.77890 34812 ft 506 kts 204°
2026-04-28 12:35 53.87432 3.75120 33972 ft 510 kts 204°
2026-04-28 12:35 53.84320 3.72390 33183 ft 512 kts 204°
2026-04-28 12:35 53.81183 3.69642 32521 ft 510 kts 204°
2026-04-28 12:35 53.78056 3.66914 31834 ft 509 kts 204°
2026-04-28 12:36 53.74910 3.64170 31152 ft 508 kts 204°
2026-04-28 12:36 53.71781 3.61443 30496 ft 505 kts 204°
2026-04-28 12:36 53.68701 3.58767 29883 ft 501 kts 204°
2026-04-28 12:36 53.65628 3.56101 29338 ft 495 kts 204°
2026-04-28 12:37 53.62570 3.53589 28814 ft 485 kts 198°
2026-04-28 12:37 53.59383 3.52245 28321 ft 467 kts 181°
2026-04-28 12:37 53.56235 3.52295 27826 ft 450 kts 168°
2026-04-28 12:37 53.53178 3.53007 27350 ft 442 kts 165°
2026-04-28 12:38 53.50135 3.53813 26862 ft 437 kts 165°
2026-04-28 12:38 53.47185 3.54563 26379 ft 432 kts 166°
2026-04-28 12:38 53.44238 3.55265 25902 ft 427 kts 167°
2026-04-28 12:38 53.41302 3.55935 25433 ft 422 kts 167°
2026-04-28 12:39 53.38454 3.56694 25031 ft 414 kts 165°
2026-04-28 12:39 53.35651 3.57505 25007 ft 403 kts 165°
2026-04-28 12:39 53.32892 3.58306 24980 ft 402 kts 164°
2026-04-28 12:39 53.30131 3.59114 24822 ft 402 kts 165°
2026-04-28 12:40 53.27400 3.59913 24432 ft 399 kts 165°
2026-04-28 12:40 53.24704 3.60701 24002 ft 396 kts 165°
2026-04-28 12:40 53.22013 3.61482 23582 ft 393 kts 165°
2026-04-28 12:40 53.19328 3.62261 23143 ft 390 kts 165°
2026-04-28 12:41 53.16685 3.63027 22698 ft 387 kts 165°
2026-04-28 12:41 53.14050 3.63790 22264 ft 384 kts 165°
2026-04-28 12:41 53.11455 3.64541 21832 ft 381 kts 165°
2026-04-28 12:41 53.08838 3.65297 21385 ft 378 kts 166°
2026-04-28 12:42 53.06264 3.66041 20952 ft 376 kts 166°
2026-04-28 12:42 53.03736 3.66769 20519 ft 373 kts 166°
2026-04-28 12:42 53.01190 3.67501 20083 ft 370 kts 166°
2026-04-28 12:42 52.98678 3.68222 19650 ft 367 kts 166°
2026-04-28 12:43 52.96166 3.68944 19207 ft 365 kts 166°
2026-04-28 12:43 52.93697 3.69653 18771 ft 362 kts 166°
2026-04-28 12:43 52.91233 3.70358 18332 ft 359 kts 166°
2026-04-28 12:43 52.88792 3.71055 17902 ft 356 kts 166°
2026-04-28 12:44 52.86375 3.71747 17459 ft 354 kts 166°
2026-04-28 12:44 52.83952 3.72439 17010 ft 351 kts 167°
2026-04-28 12:44 52.81557 3.73121 16588 ft 348 kts 166°
2026-04-28 12:44 52.79204 3.73790 16144 ft 346 kts 167°
2026-04-28 12:45 52.76850 3.74456 15697 ft 343 kts 167°
2026-04-28 12:45 52.74479 3.74936 15272 ft 342 kts 171°
2026-04-28 12:45 52.72136 3.75310 14855 ft 339 kts 171°
2026-04-28 12:45 52.69797 3.75678 14431 ft 337 kts 171°
2026-04-28 12:46 52.67507 3.76035 14013 ft 334 kts 171°
2026-04-28 12:46 52.65204 3.76398 13597 ft 332 kts 171°
2026-04-28 12:46 52.62918 3.76757 13175 ft 330 kts 171°
2026-04-28 12:46 52.60629 3.77118 12756 ft 328 kts 171°
2026-04-28 12:47 52.58470 3.77936 12285 ft 320 kts 151°
2026-04-28 12:47 52.56762 3.80139 11851 ft 310 kts 127°
2026-04-28 12:47 52.55747 3.83193 11429 ft 303 kts 109°
2026-04-28 12:47 52.55009 3.86385 11007 ft 302 kts 109°
2026-04-28 12:48 52.54253 3.89614 10582 ft 300 kts 109°
2026-04-28 12:48 52.53514 3.92720 10415 ft 288 kts 109°
2026-04-28 12:48 52.52795 3.95702 10290 ft 275 kts 109°
2026-04-28 12:48 52.52106 3.98545 10233 ft 267 kts 109°
2026-04-28 12:49 52.51415 4.01398 10246 ft 269 kts 109°
2026-04-28 12:49 52.50721 4.04258 10250 ft 269 kts 109°
2026-04-28 12:49 52.50034 4.07083 10273 ft 269 kts 109°
2026-04-28 12:49 52.49340 4.09928 10259 ft 268 kts 109°
2026-04-28 12:50 52.48643 4.12780 10237 ft 269 kts 109°
2026-04-28 12:50 52.47943 4.15644 9912 ft 271 kts 109°
2026-04-28 12:50 52.47243 4.18499 9500 ft 270 kts 109°
2026-04-28 12:50 52.46544 4.21345 9130 ft 267 kts 109°
2026-04-28 12:51 52.45861 4.24128 8803 ft 264 kts 109°
2026-04-28 12:51 52.45180 4.26893 8428 ft 262 kts 109°
2026-04-28 12:51 52.44498 4.29658 8066 ft 259 kts 109°
2026-04-28 12:51 52.43833 4.32354 7715 ft 257 kts 109°
2026-04-28 12:52 52.43154 4.35062 7392 ft 255 kts 112°
2026-04-28 12:52 52.42062 4.37341 7020 ft 260 kts 139°
2026-04-28 12:52 52.40410 4.38487 6672 ft 267 kts 166°
2026-04-28 12:52 52.38526 4.38445 6353 ft 270 kts 180°
2026-04-28 12:53 52.36676 4.38169 6009 ft 269 kts 180°
2026-04-28 12:53 52.34818 4.37896 5672 ft 267 kts 180°
2026-04-28 12:53 52.32993 4.37644 5345 ft 265 kts 179°
2026-04-28 12:53 52.31155 4.37402 5021 ft 264 kts 179°
2026-04-28 12:54 52.29335 4.37168 4708 ft 262 kts 179°
2026-04-28 12:54 52.27559 4.36941 4558 ft 252 kts 179°
2026-04-28 12:54 52.25843 4.36718 4478 ft 240 kts 178°
2026-04-28 12:54 52.24259 4.36901 4337 ft 221 kts 150°
2026-04-28 12:55 52.23104 4.38400 4116 ft 208 kts 117°
2026-04-28 12:55 52.22500 4.40473 3843 ft 205 kts 109°
2026-04-28 12:55 52.21923 4.42615 3575 ft 205 kts 109°
2026-04-28 12:55 52.21331 4.44737 3311 ft 204 kts 109°
2026-04-28 12:56 52.20925 4.46894 3163 ft 197 kts 94°
2026-04-28 12:56 52.20835 4.49120 3149 ft 197 kts 89°
2026-04-28 12:56 52.20803 4.51346 3029 ft 196 kts 86°
2026-04-28 12:56 52.21111 4.53472 2833 ft 194 kts 64°
2026-04-28 12:57 52.21795 4.55356 2572 ft 194 kts 57°
2026-04-28 12:57 52.22549 4.57149 2315 ft 192 kts 57°
2026-04-28 12:57 52.23279 4.58960 2060 ft 189 kts 58°
2026-04-28 12:57 52.23970 4.60753 1814 ft 186 kts 59°
2026-04-28 12:58 52.24647 4.62538 1561 ft 183 kts 59°
2026-04-28 12:58 52.25296 4.64248 1379 ft 168 kts 58°
2026-04-28 12:58 52.25870 4.65757 1197 ft 150 kts 60°
2026-04-28 12:58 52.26402 4.67153 954 ft 137 kts 58°
2026-04-28 12:59 52.26869 4.68384 753 ft 122 kts 56°
2026-04-28 12:59 52.27309 4.69531 598 ft 118 kts 60°
2026-04-28 12:59 52.27743 4.70669 458 ft 118 kts 58°
2026-04-28 12:59 52.28176 4.71825 296 ft 118 kts 54°
2026-04-28 13:00 52.28617 4.72944 151 ft 118 kts 56°
2026-04-28 13:00 52.29058 4.74089 3 ft 118 kts 59°
2026-04-28 13:00 52.29433 4.75078 0 ft 81 kts 58°
2026-04-28 13:00 52.29639 4.75614 0 ft 39 kts 55°
2026-04-28 13:01 52.29813 4.75831 0 ft 27 kts 26°
2026-04-28 13:01 52.29955 4.75955 0 ft 20 kts 26°
2026-04-28 13:01 52.30040 4.76118 0 ft 18 kts 59°
2026-04-28 13:01 52.30110 4.76297 0 ft 18 kts 57°
2026-04-28 13:02 52.30179 4.76469 0 ft 17 kts 58°
2026-04-28 13:02 52.30240 4.76639 0 ft 16 kts 59°
2026-04-28 13:02 52.30320 4.76728 0 ft 14 kts 333°
2026-04-28 13:02 52.30366 4.76586 0 ft 14 kts 312°
2026-04-28 13:03 52.30442 4.76503 0 ft 12 kts 328°
2026-04-28 13:03 52.30482 4.76493 0 ft 4 kts 42°
2026-04-28 13:03 52.30500 4.76534 0 ft 3 kts 59°
2026-04-28 13:03 52.30505 4.76548 0 ft 0 kts 59°